Вернуться в каталог

STARLINK-33736

АктивенСвязьVLEO
NORAD 63450·PAYLOAD·🇺🇸 United States

Запущен Apr 4, 2025 с Vandenberg Space Force Base

Loading…

Ближайшие Пролёты (ближайшие 24 часа)

TLE

СвежийSource: CelesTrak SupGP

Эпоха: Sep 15, 2026, 02:23 UTC

1 63450C 25069T   26258.09979167  .00073034  00000+0  21570-2 0  2582
2 63450  53.1589 334.9345 0001136  93.3729 253.8518 15.34365826    12

Отслеживайте STARLINK-33736 в реальном времени с AllMySat

Download on the App Store